Weather History for Fairbanks Eiels, AK

Change the Weather History Date:

Friday, December 28, 2012

  Actual Average Record
Temperature  
Mean Temperature -7 °F -  
Max Temperature 0 °F 2 °F 41 °F (1982)
Min Temperature -14 °F -13 °F -61 °F (1961)
Degree Days  
Heating Degree Days 72    
Moisture  
Dew Point -13 °F    
Average Humidity 78    
Maximum Humidity 81    
Minimum Humidity 75    
Precipitation  
Precipitation 0.00 in - - ()
Sea Level Pressure  
Sea Level Pressure 29.63 in    
Wind  
Wind Speed 0 mph (North)    
Max Wind Speed 0 mph    
Max Gust Speed -    
Visibility 10 miles    
Events Snow    
Averages and records for this station are not official NWS values.
T = Trace of Precipitation, MM = Missing Value Source: NWS Daily Summary

Daily Weather History Graph

Daily Weather History Graph

Search for Another Location

Airport:

Trip Planner

Search our weather history database for the weather conditions in past years. The results will help you decide how hot, cold, wet, or windy it might be!

Date:

Astronomy

Dec. 28, 2012 Rise Set
Actual Time 10:51 AM AKST 2:49 PM AKST
Civil Twilight 9:29 AM AKST 4:11 PM AKST
Nautical Twilight 8:19 AM AKST 5:21 PM AKST
Astronomical Twilight 7:18 AM AKST 6:22 PM AKST
Moon 4:15 PM AKST (12/28) 10:14 AM AKST (12/28)
Length of Visible Light 6h 41m
Length of Day
3h 57m
Full, 100% of the Moon is Illuminated
Dec 28
Full
Jan 4
Last Quarter
Jan 11
New
Jan 18
First Quarter
Jan 26
Full

Hourly Weather History & Observations

Time (AKST) Temp. Dew Point Humidity Pressure Visibility Wind Dir Wind Speed Gust Speed Precip Events Conditions
12:55 AM -14.6 °F -20.4 °F 75% 29.57 in 10.0 mi Calm Calm - N/A   Mostly Cloudy
1:55 AM -11.9 °F -17.5 °F 76% 29.58 in 10.0 mi Calm Calm - N/A   Overcast
2:55 AM -12.1 °F -17.7 °F 76% 29.60 in 10.0 mi Calm Calm - N/A   Overcast
3:55 AM -11.4 °F -16.6 °F 78% 29.61 in 10.0 mi Calm Calm - N/A   Overcast
4:55 AM -8.0 °F -13.0 °F 79% 29.61 in 10.0 mi Calm Calm - N/A   Overcast
5:55 AM -6.0 °F -10.8 °F 79% 29.62 in 10.0 mi Calm Calm - N/A   Overcast
6:55 AM -4.0 °F -8.7 °F 80% 29.61 in 10.0 mi Calm Calm - N/A   Overcast
7:55 AM -2.7 °F -7.4 °F 80% 29.62 in 10.0 mi Calm Calm - N/A   Overcast
8:55 AM -0.9 °F -5.4 °F 81% 29.63 in 10.0 mi Calm Calm - N/A   Overcast
9:55 AM -1.3 °F -5.8 °F 81% 29.64 in 10.0 mi Calm Calm - N/A   Overcast
10:55 AM -1.3 °F -5.8 °F 81% 29.64 in 10.0 mi Calm Calm - N/A   Overcast
11:55 AM -1.8 °F -6.3 °F 81% 29.65 in 10.0 mi Calm Calm - N/A   Partly Cloudy
12:55 PM -1.8 °F -6.5 °F 80% 29.65 in 10.0 mi Calm Calm - 0.00 in Snow Light Snow
1:55 PM -4.5 °F -9.4 °F 80% 29.66 in 10.0 mi Calm Calm - 0.00 in   Clear
2:55 PM -6.9 °F -11.9 °F 79% 29.65 in 10.0 mi Calm Calm - N/A   Clear
3:55 PM -7.1 °F -12.1 °F 79% 29.65 in 10.0 mi Calm Calm - N/A   Clear
4:55 PM -8.9 °F -13.9 °F 79% 29.63 in 10.0 mi Calm Calm - N/A   Clear
5:55 PM -11.6 °F -16.8 °F 78% 29.65 in 10.0 mi Calm Calm - N/A   Clear
6:55 PM -11.0 °F -16.4 °F 77% 29.65 in 10.0 mi Calm Calm - N/A   Clear
7:55 PM -11.7 °F -17.1 °F 77% 29.64 in 10.0 mi Calm Calm - N/A   Clear
8:55 PM -11.9 °F -17.5 °F 76% 29.63 in 10.0 mi Calm Calm - N/A   Clear
9:55 PM -10.3 °F -15.7 °F 77% 29.63 in 10.0 mi Calm Calm - N/A   Clear
10:55 PM -10.8 °F -16.2 °F 77% 29.63 in 10.0 mi Calm Calm - N/A   Clear
11:55 PM -9.6 °F -14.8 °F 78% 29.61 in 10.0 mi Calm Calm - N/A   Overcast